SWA1728 KDAL-KSAV

Flight info

Callsign SWA1728
Flight time 1h 45m
Altitude 37000
Route LNDRE5 FORCK HAWES WINAP ORRKK FRDDO DBN LOTTS
Aircraft B738/M-SDE2E3FGHIRWXY/LB1

Departure

Time 2026-04-26 21:03
Airport Dallas Love Field (KDAL)

Arrival

Time 2026-04-26 22:48
Airport Savannah Hilton Head International Airport (KSAV)
Time Latitude Longitude Altitude Speed Heading
2026-04-26 20:44 32.84644 -96.84894 481 ft 0 kts 181°
2026-04-26 20:56 32.84650 -96.84894 473 ft 4 kts 181°
2026-04-26 20:56 32.84677 -96.84894 476 ft 4 kts 181°
2026-04-26 20:56 32.84704 -96.84893 481 ft 4 kts 181°
2026-04-26 20:56 32.84731 -96.84893 481 ft 3 kts 181°
2026-04-26 20:57 32.84734 -96.84892 481 ft 1 kts 181°
2026-04-26 20:59 32.84731 -96.84892 474 ft 2 kts 180°
2026-04-26 20:59 32.84722 -96.84874 481 ft 4 kts 90°
2026-04-26 20:59 32.84759 -96.84859 481 ft 9 kts 345°
2026-04-26 20:59 32.84825 -96.84924 473 ft 16 kts 316°
2026-04-26 21:00 32.84918 -96.85031 481 ft 21 kts 315°
2026-04-26 21:00 32.85013 -96.85161 481 ft 21 kts 312°
2026-04-26 21:00 32.85118 -96.85276 481 ft 20 kts 318°
2026-04-26 21:00 32.85222 -96.85383 478 ft 20 kts 324°
2026-04-26 21:01 32.85323 -96.85488 481 ft 19 kts 316°
2026-04-26 21:01 32.85418 -96.85593 481 ft 18 kts 317°
2026-04-26 21:01 32.85509 -96.85695 477 ft 18 kts 316°
2026-04-26 21:01 32.85600 -96.85787 475 ft 17 kts 341°
2026-04-26 21:02 32.85690 -96.85713 481 ft 16 kts 56°
2026-04-26 21:02 32.85649 -96.85589 481 ft 27 kts 135°
2026-04-26 21:02 32.85292 -96.85176 481 ft 113 kts 135°
2026-04-26 21:02 32.84566 -96.84325 651 ft 167 kts 136°
2026-04-26 21:03 32.83716 -96.83317 1344 ft 190 kts 139°
2026-04-26 21:03 32.82674 -96.82189 1974 ft 210 kts 140°
2026-04-26 21:03 32.81518 -96.80990 2413 ft 228 kts 141°
2026-04-26 21:03 32.80308 -96.79721 2970 ft 236 kts 141°
2026-04-26 21:04 32.79073 -96.78412 3628 ft 239 kts 141°
2026-04-26 21:04 32.77829 -96.77084 4307 ft 243 kts 141°
2026-04-26 21:04 32.76522 -96.75692 4681 ft 261 kts 141°
2026-04-26 21:04 32.75162 -96.74195 5433 ft 268 kts 139°
2026-04-26 21:05 32.73831 -96.72656 6436 ft 268 kts 139°
2026-04-26 21:05 32.72485 -96.71088 7237 ft 274 kts 139°
2026-04-26 21:05 32.71105 -96.69484 8010 ft 281 kts 139°
2026-04-26 21:05 32.69712 -96.67839 8824 ft 284 kts 137°
2026-04-26 21:06 32.68587 -96.65869 9478 ft 298 kts 114°
2026-04-26 21:06 32.68218 -96.63412 10187 ft 310 kts 91°
2026-04-26 21:06 32.68665 -96.60819 10488 ft 336 kts 69°
2026-04-26 21:06 32.69649 -96.58205 10701 ft 359 kts 65°
2026-04-26 21:07 32.70772 -96.55492 11136 ft 371 kts 64°
2026-04-26 21:07 32.71539 -96.53663 11533 ft 376 kts 63°
2026-04-26 21:07 32.72700 -96.50865 12280 ft 378 kts 63°
2026-04-26 21:07 32.73853 -96.48035 12975 ft 383 kts 63°
2026-04-26 21:08 32.75006 -96.45162 13618 ft 388 kts 63°
2026-04-26 21:08 32.76167 -96.42246 14265 ft 393 kts 63°
2026-04-26 21:08 32.77340 -96.39293 14913 ft 397 kts 63°
2026-04-26 21:08 32.78525 -96.36303 15579 ft 401 kts 63°
2026-04-26 21:09 32.79571 -96.33208 16160 ft 408 kts 71°
2026-04-26 21:09 32.80177 -96.29886 16747 ft 414 kts 82°
2026-04-26 21:09 32.80538 -96.26468 17363 ft 418 kts 83°
2026-04-26 21:09 32.80863 -96.23020 17949 ft 423 kts 83°
2026-04-26 21:10 32.81189 -96.19521 18508 ft 427 kts 83°
2026-04-26 21:10 32.81528 -96.16000 19106 ft 431 kts 82°
2026-04-26 21:10 32.81876 -96.12494 19699 ft 433 kts 82°
2026-04-26 21:10 32.82239 -96.08923 20266 ft 437 kts 82°
2026-04-26 21:11 32.82608 -96.05326 20823 ft 440 kts 82°
2026-04-26 21:11 32.82982 -96.01702 21327 ft 444 kts 82°
2026-04-26 21:11 32.83358 -95.98048 21826 ft 447 kts 82°
2026-04-26 21:11 32.83735 -95.94362 22306 ft 451 kts 82°
2026-04-26 21:12 32.84114 -95.90651 22783 ft 454 kts 82°
2026-04-26 21:12 32.84493 -95.86915 23251 ft 456 kts 82°
2026-04-26 21:12 32.84873 -95.83155 23707 ft 459 kts 82°
2026-04-26 21:12 32.85255 -95.79370 24144 ft 462 kts 82°
2026-04-26 21:13 32.85638 -95.75557 24562 ft 466 kts 82°
2026-04-26 21:13 32.86024 -95.71716 24944 ft 470 kts 82°
2026-04-26 21:13 32.86411 -95.67846 25338 ft 473 kts 81°
2026-04-26 21:13 32.86800 -95.63942 25671 ft 477 kts 81°
2026-04-26 21:14 32.87191 -95.60010 26016 ft 481 kts 81°
2026-04-26 21:14 32.87583 -95.56050 26396 ft 484 kts 81°
2026-04-26 21:14 32.87976 -95.52060 26757 ft 486 kts 81°
2026-04-26 21:14 32.88364 -95.48106 27093 ft 489 kts 81°
2026-04-26 21:15 32.88759 -95.44075 27420 ft 492 kts 81°
2026-04-26 21:15 32.89156 -95.40015 27752 ft 495 kts 81°
2026-04-26 21:15 32.89553 -95.35934 28061 ft 498 kts 81°
2026-04-26 21:15 32.89952 -95.31830 28352 ft 501 kts 81°
2026-04-26 21:16 32.90353 -95.27688 28648 ft 504 kts 81°
2026-04-26 21:16 32.90753 -95.23533 28949 ft 507 kts 81°
2026-04-26 21:16 32.91154 -95.19358 29233 ft 509 kts 81°
2026-04-26 21:16 32.91555 -95.15157 29514 ft 512 kts 81°
2026-04-26 21:17 32.91957 -95.10939 29803 ft 514 kts 81°
2026-04-26 21:17 32.92360 -95.06696 30082 ft 516 kts 81°
2026-04-26 21:17 32.92763 -95.02433 30337 ft 519 kts 81°
2026-04-26 21:17 32.93165 -94.98167 30623 ft 520 kts 81°
2026-04-26 21:18 32.93566 -94.93888 30956 ft 520 kts 81°
2026-04-26 21:18 32.93965 -94.89612 31338 ft 519 kts 81°
2026-04-26 21:18 32.94362 -94.85356 31728 ft 517 kts 81°
2026-04-26 21:18 32.94752 -94.81162 32098 ft 515 kts 81°
2026-04-26 21:19 32.95145 -94.76922 32443 ft 514 kts 81°
2026-04-26 21:19 32.95534 -94.72692 32751 ft 514 kts 80°
2026-04-26 21:19 32.95923 -94.68455 33081 ft 513 kts 81°
2026-04-26 21:19 32.96307 -94.64239 33456 ft 511 kts 80°
2026-04-26 21:20 32.96690 -94.60034 33778 ft 510 kts 80°
2026-04-26 21:20 32.97072 -94.55826 34056 ft 510 kts 80°
2026-04-26 21:20 32.97452 -94.51624 34370 ft 509 kts 80°
2026-04-26 21:20 32.97829 -94.47439 34631 ft 509 kts 80°
2026-04-26 21:21 32.98207 -94.43242 34826 ft 511 kts 80°
2026-04-26 21:21 32.98584 -94.39031 35035 ft 512 kts 80°
2026-04-26 21:21 32.98960 -94.34820 35289 ft 511 kts 80°
2026-04-26 21:21 32.99333 -94.30616 35541 ft 511 kts 80°
2026-04-26 21:22 32.99673 -94.26400 35776 ft 512 kts 83°
2026-04-26 21:22 32.99723 -94.22141 35982 ft 515 kts 88°
2026-04-26 21:22 32.99641 -94.17880 36204 ft 515 kts 89°
2026-04-26 21:23 32.99378 -94.09318 36533 ft 518 kts 89°
2026-04-26 21:23 32.99253 -94.05033 36779 ft 516 kts 89°
2026-04-26 21:23 32.99044 -93.96534 36854 ft 514 kts 89°
2026-04-26 21:24 32.98864 -93.88152 36839 ft 501 kts 88°
2026-04-26 21:24 32.98689 -93.79871 36853 ft 499 kts 88°
2026-04-26 21:25 32.98507 -93.71614 36856 ft 499 kts 88°
2026-04-26 21:25 32.98317 -93.63345 36859 ft 500 kts 89°
2026-04-26 21:26 32.98119 -93.55065 36864 ft 501 kts 89°
2026-04-26 21:26 32.97914 -93.46745 36865 ft 503 kts 89°
2026-04-26 21:27 32.97704 -93.38401 36867 ft 505 kts 89°
2026-04-26 21:27 32.97488 -93.30028 36866 ft 507 kts 89°
2026-04-26 21:28 32.97264 -93.21628 36862 ft 508 kts 89°
2026-04-26 21:28 32.97037 -93.13256 36867 ft 509 kts 89°
2026-04-26 21:29 32.96802 -93.04840 36869 ft 508 kts 89°
2026-04-26 21:29 32.96561 -92.96432 36870 ft 508 kts 89°
2026-04-26 21:30 32.96317 -92.88036 36870 ft 507 kts 89°
2026-04-26 21:30 32.95950 -92.79661 36870 ft 506 kts 92°
2026-04-26 21:31 32.95261 -92.71327 36881 ft 505 kts 94°
2026-04-26 21:31 32.94513 -92.63018 36873 ft 504 kts 94°
2026-04-26 21:32 32.93798 -92.54736 36879 ft 502 kts 94°
2026-04-26 21:32 32.93106 -92.46474 36887 ft 501 kts 93°
2026-04-26 21:33 32.92417 -92.38210 36891 ft 501 kts 93°
2026-04-26 21:33 32.91728 -92.30014 36890 ft 501 kts 94°
2026-04-26 21:34 32.91025 -92.21749 36891 ft 502 kts 94°
2026-04-26 21:34 32.90315 -92.13480 36902 ft 502 kts 94°
2026-04-26 21:35 32.89598 -92.05201 36895 ft 504 kts 94°
2026-04-26 21:35 32.88876 -91.96908 36904 ft 504 kts 94°
2026-04-26 21:36 32.88270 -91.90005 36914 ft 505 kts 94°
2026-04-26 21:36 32.87413 -91.80295 36913 ft 505 kts 94°
2026-04-26 21:37 32.86668 -91.71958 36909 ft 506 kts 94°
2026-04-26 21:37 32.85919 -91.63632 36911 ft 507 kts 94°
2026-04-26 21:38 32.85166 -91.55302 36903 ft 507 kts 94°
2026-04-26 21:38 32.84406 -91.46976 36900 ft 506 kts 94°
2026-04-26 21:39 32.83643 -91.38705 36905 ft 506 kts 94°
2026-04-26 21:39 32.82871 -91.30348 36917 ft 505 kts 94°
2026-04-26 21:40 32.82102 -91.22102 36906 ft 505 kts 94°
2026-04-26 21:40 32.81321 -91.13799 36913 ft 504 kts 94°
2026-04-26 21:41 32.80537 -91.05506 36920 ft 504 kts 94°
2026-04-26 21:41 32.79750 -90.97227 36908 ft 504 kts 94°
2026-04-26 21:42 32.78957 -90.88960 36922 ft 503 kts 94°
2026-04-26 21:42 32.78159 -90.80698 36914 ft 503 kts 94°
2026-04-26 21:43 32.77353 -90.72429 36921 ft 503 kts 94°
2026-04-26 21:43 32.76548 -90.64222 36931 ft 504 kts 94°
2026-04-26 21:44 32.75731 -90.55953 36925 ft 504 kts 94°
2026-04-26 21:44 32.74909 -90.47668 36928 ft 505 kts 94°
2026-04-26 21:45 32.74081 -90.39382 36912 ft 506 kts 94°
2026-04-26 21:45 32.73247 -90.31092 36920 ft 506 kts 94°
2026-04-26 21:46 32.72405 -90.22789 36931 ft 506 kts 94°
2026-04-26 21:46 32.71557 -90.14478 36927 ft 507 kts 94°
2026-04-26 21:47 32.70703 -90.06164 36929 ft 508 kts 94°
2026-04-26 21:47 32.69843 -89.97846 36926 ft 508 kts 94°
2026-04-26 21:48 32.68977 -89.89522 36931 ft 508 kts 94°
2026-04-26 21:48 32.68104 -89.81189 36915 ft 508 kts 94°
2026-04-26 21:49 32.67233 -89.72938 36931 ft 507 kts 95°
2026-04-26 21:49 32.66352 -89.64633 36933 ft 507 kts 95°
2026-04-26 21:50 32.65618 -89.57749 36934 ft 506 kts 95°
2026-04-26 21:50 32.64580 -89.48079 36936 ft 505 kts 95°
2026-04-26 21:51 32.63689 -89.39826 36941 ft 505 kts 95°
2026-04-26 21:51 32.62922 -89.31552 36945 ft 503 kts 91°
2026-04-26 21:52 32.62438 -89.23275 36946 ft 502 kts 90°
2026-04-26 21:52 32.61982 -89.15000 36943 ft 502 kts 91°
2026-04-26 21:53 32.61486 -89.06794 36954 ft 502 kts 91°
2026-04-26 21:53 32.60963 -88.98542 36954 ft 501 kts 91°
2026-04-26 21:54 32.60430 -88.90294 36953 ft 501 kts 91°
2026-04-26 21:54 32.59893 -88.82056 36954 ft 500 kts 91°
2026-04-26 21:55 32.59354 -88.73831 36963 ft 500 kts 91°
2026-04-26 21:55 32.58810 -88.65597 36957 ft 501 kts 91°
2026-04-26 21:56 32.58351 -88.58746 36945 ft 501 kts 91°
2026-04-26 21:56 32.57797 -88.50507 36942 ft 501 kts 91°
2026-04-26 21:57 32.57235 -88.42269 36945 ft 501 kts 91°
2026-04-26 21:57 32.56667 -88.34037 36942 ft 501 kts 91°
2026-04-26 21:58 32.56099 -88.25858 36956 ft 501 kts 91°
2026-04-26 21:58 32.55522 -88.17623 36952 ft 501 kts 91°
2026-04-26 21:59 32.54940 -88.09387 36955 ft 501 kts 91°
2026-04-26 21:59 32.54353 -88.01154 36957 ft 501 kts 91°
2026-04-26 22:00 32.53666 -87.92927 36959 ft 502 kts 95°
2026-04-26 22:00 32.52554 -87.84745 36959 ft 502 kts 97°
2026-04-26 22:01 32.51353 -87.76651 36955 ft 503 kts 97°
2026-04-26 22:01 32.50173 -87.68493 36962 ft 502 kts 97°
2026-04-26 22:02 32.49021 -87.60347 36962 ft 501 kts 97°
2026-04-26 22:02 32.47874 -87.52204 36964 ft 501 kts 97°
2026-04-26 22:03 32.46719 -87.44055 36961 ft 501 kts 97°
2026-04-26 22:03 32.45558 -87.35907 36954 ft 501 kts 97°
2026-04-26 22:04 32.44390 -87.27756 36958 ft 501 kts 97°
2026-04-26 22:04 32.43219 -87.19627 36952 ft 501 kts 97°
2026-04-26 22:05 32.42052 -87.11549 36944 ft 501 kts 97°
2026-04-26 22:05 32.40870 -87.03417 36946 ft 500 kts 97°
2026-04-26 22:06 32.39684 -86.95298 36943 ft 500 kts 97°
2026-04-26 22:06 32.38495 -86.87196 36943 ft 499 kts 97°
2026-04-26 22:07 32.37302 -86.79108 36944 ft 499 kts 97°
2026-04-26 22:07 32.36113 -86.71068 36948 ft 499 kts 98°
2026-04-26 22:08 32.34912 -86.62992 36958 ft 498 kts 98°
2026-04-26 22:08 32.33708 -86.54926 36952 ft 498 kts 98°
2026-04-26 22:09 32.32520 -86.46851 36948 ft 498 kts 95°
2026-04-26 22:09 32.32502 -86.38736 36954 ft 492 kts 81°
2026-04-26 22:10 32.33214 -86.30684 36939 ft 492 kts 80°
2026-04-26 22:10 32.33928 -86.22636 36926 ft 492 kts 80°
2026-04-26 22:11 32.34593 -86.14575 36937 ft 492 kts 81°
2026-04-26 22:11 32.35223 -86.06569 36933 ft 492 kts 81°
2026-04-26 22:12 32.35556 -85.98448 36939 ft 495 kts 86°
2026-04-26 22:12 32.35576 -85.90300 36941 ft 495 kts 87°
2026-04-26 22:13 32.35588 -85.82148 36945 ft 495 kts 86°
2026-04-26 22:13 32.35647 -85.74000 36953 ft 495 kts 86°
2026-04-26 22:14 32.35727 -85.65906 36964 ft 496 kts 86°
2026-04-26 22:14 32.35806 -85.57742 36955 ft 497 kts 86°
2026-04-26 22:15 32.35878 -85.49570 36955 ft 496 kts 86°
2026-04-26 22:15 32.35944 -85.41409 36950 ft 496 kts 86°
2026-04-26 22:16 32.36002 -85.33241 36951 ft 496 kts 86°
2026-04-26 22:16 32.36056 -85.25077 36945 ft 496 kts 86°
2026-04-26 22:17 32.36106 -85.16918 36937 ft 496 kts 86°
2026-04-26 22:17 32.36149 -85.08809 36923 ft 496 kts 86°
2026-04-26 22:18 32.36188 -85.00642 36919 ft 496 kts 86°
2026-04-26 22:18 32.36221 -84.92484 36915 ft 496 kts 86°
2026-04-26 22:19 32.36250 -84.84335 36917 ft 495 kts 86°
2026-04-26 22:19 32.36272 -84.76192 36922 ft 495 kts 86°
2026-04-26 22:20 32.36288 -84.69428 36930 ft 495 kts 86°
2026-04-26 22:20 32.36302 -84.59912 36922 ft 495 kts 86°
2026-04-26 22:21 32.36309 -84.51813 36928 ft 495 kts 86°
2026-04-26 22:21 32.36310 -84.43653 36932 ft 495 kts 87°
2026-04-26 22:22 32.36308 -84.35503 36918 ft 496 kts 86°
2026-04-26 22:22 32.36301 -84.27351 36938 ft 496 kts 87°
2026-04-26 22:23 32.36285 -84.19189 36939 ft 496 kts 87°
2026-04-26 22:23 32.36266 -84.11015 36935 ft 497 kts 87°
2026-04-26 22:24 32.36242 -84.02873 36935 ft 498 kts 87°
2026-04-26 22:24 32.36212 -83.94685 36944 ft 498 kts 87°
2026-04-26 22:25 32.36176 -83.86497 36945 ft 498 kts 87°
2026-04-26 22:25 32.36139 -83.78299 36953 ft 498 kts 87°
2026-04-26 22:26 32.36091 -83.70087 36592 ft 503 kts 87°
2026-04-26 22:26 32.36065 -83.65939 36039 ft 503 kts 88°
2026-04-26 22:26 32.36038 -83.61808 35416 ft 503 kts 88°
2026-04-26 22:27 32.36011 -83.57672 34760 ft 504 kts 88°
2026-04-26 22:27 32.35982 -83.53520 34088 ft 505 kts 88°
2026-04-26 22:27 32.35952 -83.49417 33405 ft 507 kts 88°
2026-04-26 22:27 32.35920 -83.45245 32692 ft 508 kts 88°
2026-04-26 22:28 32.35886 -83.41063 31952 ft 510 kts 88°
2026-04-26 22:28 32.35851 -83.36879 31397 ft 507 kts 88°
2026-04-26 22:28 32.35813 -83.32725 30864 ft 503 kts 88°
2026-04-26 22:28 32.35775 -83.28605 30334 ft 500 kts 88°
2026-04-26 22:29 32.35737 -83.24507 29809 ft 496 kts 88°
2026-04-26 22:29 32.35697 -83.20447 29283 ft 492 kts 88°
2026-04-26 22:29 32.35657 -83.16417 28745 ft 488 kts 88°
2026-04-26 22:29 32.35616 -83.12423 28216 ft 484 kts 88°
2026-04-26 22:30 32.35574 -83.08463 27687 ft 480 kts 88°
2026-04-26 22:30 32.35530 -83.04526 27161 ft 476 kts 88°
2026-04-26 22:30 32.35486 -83.00633 26638 ft 472 kts 88°
2026-04-26 22:30 32.35441 -82.96768 26118 ft 467 kts 89°
2026-04-26 22:31 32.35396 -82.92939 25595 ft 463 kts 89°
2026-04-26 22:31 32.35350 -82.89146 25077 ft 459 kts 89°
2026-04-26 22:31 32.35304 -82.85384 24562 ft 455 kts 89°
2026-04-26 22:31 32.35257 -82.81661 24049 ft 451 kts 89°
2026-04-26 22:32 32.35210 -82.78022 23546 ft 447 kts 89°
2026-04-26 22:32 32.35162 -82.74365 23039 ft 443 kts 89°
2026-04-26 22:32 32.35113 -82.70743 22537 ft 439 kts 89°
2026-04-26 22:32 32.35063 -82.67141 22032 ft 435 kts 89°
2026-04-26 22:33 32.35012 -82.63580 21537 ft 431 kts 89°
2026-04-26 22:33 32.34909 -82.56548 20552 ft 424 kts 89°
2026-04-26 22:33 32.34857 -82.53068 20060 ft 421 kts 89°
2026-04-26 22:34 32.34806 -82.49618 19567 ft 418 kts 89°
2026-04-26 22:34 32.34754 -82.46192 19077 ft 415 kts 89°
2026-04-26 22:34 32.34699 -82.42788 18589 ft 412 kts 89°
2026-04-26 22:34 32.34644 -82.39420 18105 ft 409 kts 89°
2026-04-26 22:35 32.34589 -82.36068 17627 ft 406 kts 89°
2026-04-26 22:35 32.34533 -82.32751 17156 ft 402 kts 89°
2026-04-26 22:35 32.34477 -82.29458 16701 ft 398 kts 89°
2026-04-26 22:35 32.34422 -82.26237 16241 ft 395 kts 89°
2026-04-26 22:36 32.34366 -82.22996 15780 ft 392 kts 89°
2026-04-26 22:36 32.34310 -82.19785 15318 ft 390 kts 89°
2026-04-26 22:36 32.34254 -82.16588 14849 ft 387 kts 89°
2026-04-26 22:36 32.34196 -82.13426 14392 ft 383 kts 90°
2026-04-26 22:37 32.34136 -82.10286 13925 ft 380 kts 90°
2026-04-26 22:37 32.34079 -82.07177 13459 ft 377 kts 90°
2026-04-26 22:37 32.34021 -82.04093 13006 ft 373 kts 90°
2026-04-26 22:37 32.33964 -82.01040 12561 ft 370 kts 90°
2026-04-26 22:38 32.33906 -81.98014 12106 ft 366 kts 90°
2026-04-26 22:38 32.33847 -81.95017 11654 ft 363 kts 90°
2026-04-26 22:38 32.33789 -81.92052 11305 ft 357 kts 90°
2026-04-26 22:38 32.33730 -81.89162 11169 ft 345 kts 90°
2026-04-26 22:39 32.33580 -81.86378 10998 ft 336 kts 100°
2026-04-26 22:39 32.32852 -81.83813 10631 ft 334 kts 118°
2026-04-26 22:39 32.31695 -81.81447 10251 ft 332 kts 121°
2026-04-26 22:39 32.30483 -81.79121 9873 ft 329 kts 122°
2026-04-26 22:40 32.29320 -81.76911 9874 ft 306 kts 122°
2026-04-26 22:40 32.28229 -81.74827 9724 ft 292 kts 121°
2026-04-26 22:40 32.27170 -81.72790 9247 ft 291 kts 121°
2026-04-26 22:40 32.26114 -81.70748 8799 ft 290 kts 121°
2026-04-26 22:41 32.25070 -81.68724 8358 ft 287 kts 121°
2026-04-26 22:41 32.24034 -81.66711 7922 ft 285 kts 121°
2026-04-26 22:41 32.23009 -81.64717 7494 ft 283 kts 121°
2026-04-26 22:41 32.21994 -81.62740 7073 ft 281 kts 120°
2026-04-26 22:42 32.20986 -81.60775 6631 ft 279 kts 120°
2026-04-26 22:42 32.19982 -81.58823 6213 ft 277 kts 121°
2026-04-26 22:42 32.18987 -81.56891 5860 ft 275 kts 120°
2026-04-26 22:42 32.17993 -81.54957 5517 ft 277 kts 120°
2026-04-26 22:43 32.16991 -81.53010 5166 ft 278 kts 120°
2026-04-26 22:43 32.15982 -81.51051 4796 ft 280 kts 120°
2026-04-26 22:43 32.14969 -81.49085 4445 ft 278 kts 120°
2026-04-26 22:43 32.13975 -81.47158 4087 ft 272 kts 120°
2026-04-26 22:44 32.13093 -81.45223 3723 ft 264 kts 104°
2026-04-26 22:44 32.12968 -81.43146 3583 ft 244 kts 86°
2026-04-26 22:44 32.12997 -81.41241 3440 ft 226 kts 87°
2026-04-26 22:44 32.13003 -81.39450 3317 ft 210 kts 88°
2026-04-26 22:45 32.12998 -81.37770 3211 ft 200 kts 88°
2026-04-26 22:45 32.12989 -81.36169 3083 ft 187 kts 88°
2026-04-26 22:45 32.12976 -81.34693 2904 ft 175 kts 88°
2026-04-26 22:45 32.12967 -81.33282 2615 ft 170 kts 88°
2026-04-26 22:46 32.12957 -81.31888 2276 ft 167 kts 89°
2026-04-26 22:46 32.12950 -81.30609 2085 ft 151 kts 89°
2026-04-26 22:46 32.12940 -81.29380 1726 ft 149 kts 90°
2026-04-26 22:46 32.12933 -81.28162 1365 ft 148 kts 90°
2026-04-26 22:47 32.12939 -81.27358 1118 ft 148 kts 90°
2026-04-26 22:47 32.12936 -81.26141 836 ft 150 kts 92°
2026-04-26 22:47 32.12911 -81.24905 559 ft 150 kts 92°
2026-04-26 22:47 32.12896 -81.23685 356 ft 146 kts 90°
2026-04-26 22:48 32.12882 -81.22505 150 ft 142 kts 91°
2026-04-26 22:48 32.12871 -81.21364 41 ft 132 kts 91°
2026-04-26 22:48 32.12864 -81.20465 41 ft 84 kts 90°
2026-04-26 22:48 32.12859 -81.19945 40 ft 27 kts 90°
2026-04-26 22:49 32.12921 -81.19817 46 ft 16 kts
2026-04-26 22:49 32.13016 -81.19847 50 ft 14 kts 303°
2026-04-26 22:49 32.13022 -81.19960 46 ft 15 kts 267°
2026-04-26 22:49 32.13022 -81.20092 47 ft 16 kts 273°
2026-04-26 22:50 32.13027 -81.20221 51 ft 17 kts 273°
2026-04-26 22:50 32.13082 -81.20328 47 ft 17 kts 353°
2026-04-26 22:50 32.13200 -81.20330 52 ft 17 kts 359°
2026-04-26 22:50 32.13330 -81.20331 50 ft 21 kts 360°
2026-04-26 22:51 32.13478 -81.20333 53 ft 20 kts 360°
2026-04-26 22:51 32.13567 -81.20374 53 ft 14 kts 285°
2026-04-26 22:51 32.13570 -81.20477 51 ft 13 kts 301°
2026-04-26 22:51 32.13638 -81.20540 50 ft 12 kts 318°
2026-04-26 22:52 32.13672 -81.20627 50 ft 12 kts 274°
2026-04-26 22:52 32.13649 -81.20690 50 ft 6 kts 219°
2026-04-26 22:52 32.13619 -81.20715 53 ft 2 kts 214°
2026-04-26 22:52 32.13614 -81.20719 53 ft 0 kts 214°